VOZ850 YSSY-YMML

Flight info

Callsign VOZ850
Flight time N/A
Altitude 36000
Route MARUB7/34R WOL H65 LEECE Q29 BOOIN
Aircraft B738/M-V/N

Departure

Time 2026-04-26 04:47
Airport Sydney Kingsford Smith International Airport (YSSY)

Arrival

Time N/A
Airport Melbourne Airport (YMML)
Time Latitude Longitude Altitude Speed Heading
2026-04-26 04:14 -33.93556 151.17992 29 ft 0 kts 280°
2026-04-26 04:34 -33.93556 151.17994 29 ft 1 kts 280°
2026-04-26 04:35 -33.93559 151.18015 29 ft 3 kts 276°
2026-04-26 04:35 -33.93560 151.18038 29 ft 3 kts 262°
2026-04-26 04:35 -33.93555 151.18058 29 ft 3 kts 222°
2026-04-26 04:35 -33.93546 151.18065 29 ft 3 kts 190°
2026-04-26 04:38 -33.93564 151.18061 29 ft 9 kts 190°
2026-04-26 04:39 -33.93642 151.18053 29 ft 13 kts 180°
2026-04-26 04:39 -33.93740 151.18064 29 ft 14 kts 181°
2026-04-26 04:39 -33.93792 151.17983 29 ft 10 kts 255°
2026-04-26 04:39 -33.93810 151.17903 29 ft 10 kts 255°
2026-04-26 04:40 -33.93828 151.17824 29 ft 10 kts 253°
2026-04-26 04:40 -33.93887 151.17777 29 ft 12 kts 181°
2026-04-26 04:40 -33.93978 151.17800 28 ft 16 kts 167°
2026-04-26 04:40 -33.94103 151.17833 28 ft 20 kts 167°
2026-04-26 04:41 -33.94250 151.17870 29 ft 23 kts 167°
2026-04-26 04:41 -33.94419 151.17905 29 ft 26 kts 182°
2026-04-26 04:41 -33.94601 151.17902 29 ft 27 kts 167°
2026-04-26 04:41 -33.94797 151.17953 29 ft 29 kts 168°
2026-04-26 04:42 -33.94992 151.18002 29 ft 28 kts 167°
2026-04-26 04:42 -33.95098 151.18095 29 ft 16 kts 97°
2026-04-26 04:42 -33.95080 151.18213 29 ft 14 kts 78°
2026-04-26 04:42 -33.95061 151.18321 29 ft 11 kts 78°
2026-04-26 04:43 -33.95044 151.18417 29 ft 13 kts 78°
2026-04-26 04:43 -33.95071 151.18511 29 ft 12 kts 141°
2026-04-26 04:43 -33.95140 151.18573 29 ft 13 kts 139°
2026-04-26 04:43 -33.95245 151.18678 29 ft 30 kts 147°
2026-04-26 04:44 -33.95480 151.18760 29 ft 36 kts 168°
2026-04-26 04:44 -33.95714 151.18822 29 ft 33 kts 167°
2026-04-26 04:44 -33.95926 151.18877 29 ft 30 kts 168°
2026-04-26 04:44 -33.96127 151.18927 29 ft 28 kts 168°
2026-04-26 04:45 -33.96314 151.18977 29 ft 27 kts 168°
2026-04-26 04:45 -33.96496 151.19025 29 ft 29 kts 168°
2026-04-26 04:45 -33.96727 151.19067 29 ft 38 kts 186°
2026-04-26 04:45 -33.97001 151.19110 29 ft 42 kts 167°
2026-04-26 04:46 -33.97117 151.19243 28 ft 19 kts 78°
2026-04-26 04:46 -33.97049 151.19361 25 ft 16 kts 12°
2026-04-26 04:46 -33.96822 151.19312 23 ft 69 kts 348°
2026-04-26 04:46 -33.96098 151.19125 27 ft 141 kts 347°
2026-04-26 04:47 -33.94959 151.18841 353 ft 174 kts 349°
2026-04-26 04:47 -33.93780 151.18824 1240 ft 177 kts 19°
2026-04-26 04:47 -33.92879 151.19801 2020 ft 183 kts 69°
2026-04-26 04:47 -33.92891 151.21309 2758 ft 186 kts 115°
2026-04-26 04:48 -33.93932 151.24241 3911 ft 206 kts 92°
2026-04-26 04:48 -33.93884 151.26052 4143 ft 228 kts 87°
2026-04-26 04:48 -33.93806 151.28046 4455 ft 244 kts 87°
2026-04-26 04:49 -33.93732 151.30176 4789 ft 265 kts 88°
2026-04-26 04:49 -33.93659 151.32418 5446 ft 271 kts 88°
2026-04-26 04:49 -33.93587 151.34699 6216 ft 274 kts 88°
2026-04-26 04:49 -33.93515 151.36998 6973 ft 276 kts 88°
2026-04-26 04:50 -33.93447 151.39325 7709 ft 279 kts 90°
2026-04-26 04:50 -33.93882 151.41569 8368 ft 283 kts 121°
2026-04-26 04:50 -33.95261 151.43225 9068 ft 284 kts 152°
2026-04-26 04:50 -33.97147 151.43914 9755 ft 286 kts 177°
2026-04-26 04:51 -33.99138 151.43606 10175 ft 300 kts 200°
2026-04-26 04:51 -34.01043 151.42401 10355 ft 320 kts 216°
2026-04-26 04:51 -34.02807 151.40622 10543 ft 341 kts 223°
2026-04-26 04:51 -34.04537 151.38595 10956 ft 352 kts 225°
2026-04-26 04:52 -34.06301 151.36461 11591 ft 356 kts 225°
2026-04-26 04:52 -34.08036 151.34373 12271 ft 358 kts 225°
2026-04-26 04:52 -34.09822 151.32253 12917 ft 361 kts 224°
2026-04-26 04:52 -34.11636 151.30126 13538 ft 365 kts 224°
2026-04-26 04:53 -34.13479 151.27986 14141 ft 368 kts 224°
2026-04-26 04:53 -34.15337 151.25838 14744 ft 372 kts 224°
2026-04-26 04:53 -34.17214 151.23678 15340 ft 375 kts 224°
2026-04-26 04:53 -34.19112 151.21495 15907 ft 378 kts 224°
2026-04-26 04:54 -34.21032 151.19289 16474 ft 381 kts 224°
2026-04-26 04:54 -34.22961 151.17070 17020 ft 384 kts 224°
2026-04-26 04:54 -34.24910 151.14829 17553 ft 388 kts 224°
2026-04-26 04:54 -34.26787 151.12668 18059 ft 390 kts 224°
2026-04-26 04:55 -34.28764 151.10392 18572 ft 393 kts 224°
2026-04-26 04:55 -34.30752 151.08101 19071 ft 396 kts 224°
2026-04-26 04:55 -34.32757 151.05788 19559 ft 399 kts 224°
2026-04-26 04:55 -34.34752 151.03486 20034 ft 402 kts 224°
2026-04-26 04:56 -34.36783 151.01140 20495 ft 405 kts 224°
2026-04-26 04:56 -34.38830 150.98774 20947 ft 408 kts 224°
2026-04-26 04:56 -34.40888 150.96394 21386 ft 411 kts 224°
2026-04-26 04:56 -34.42961 150.93994 21813 ft 413 kts 224°
2026-04-26 04:57 -34.45044 150.91581 22228 ft 416 kts 224°
2026-04-26 04:57 -34.47143 150.89148 22639 ft 419 kts 224°
2026-04-26 04:57 -34.49253 150.86700 23031 ft 421 kts 224°
2026-04-26 04:57 -34.51378 150.84233 23417 ft 424 kts 224°
2026-04-26 04:58 -34.53515 150.81751 23792 ft 426 kts 224°
2026-04-26 04:58 -34.55660 150.79258 24162 ft 428 kts 224°
2026-04-26 04:58 -34.57727 150.76637 24487 ft 431 kts 230°
2026-04-26 04:58 -34.59539 150.73713 24737 ft 436 kts 236°
2026-04-26 04:59 -34.61257 150.70670 25125 ft 437 kts 235°
2026-04-26 04:59 -34.63015 150.67638 25394 ft 441 kts 234°
2026-04-26 04:59 -34.64807 150.64601 25715 ft 443 kts 234°
2026-04-26 04:59 -34.66615 150.61564 26054 ft 444 kts 234°
2026-04-26 05:00 -34.68432 150.58524 26431 ft 444 kts 234°
2026-04-26 05:00 -34.70255 150.55475 26667 ft 448 kts 234°
2026-04-26 05:00 -34.72100 150.52386 26751 ft 455 kts 234°
2026-04-26 05:00 -34.73976 150.49241 26809 ft 462 kts 234°
2026-04-26 05:01 -34.75874 150.46054 26948 ft 466 kts 234°
2026-04-26 05:01 -34.77778 150.42853 27180 ft 468 kts 234°
2026-04-26 05:01 -34.79688 150.39639 27432 ft 469 kts 234°
2026-04-26 05:01 -34.81598 150.36421 27681 ft 470 kts 234°
2026-04-26 05:02 -34.83512 150.33195 27932 ft 470 kts 234°
2026-04-26 05:02 -34.85424 150.29967 28178 ft 471 kts 234°
2026-04-26 05:02 -34.87337 150.26735 28442 ft 470 kts 234°
2026-04-26 05:02 -34.89221 150.23548 28811 ft 468 kts 234°
2026-04-26 05:03 -34.91121 150.20333 29174 ft 466 kts 234°
2026-04-26 05:03 -34.93009 150.17136 29540 ft 463 kts 234°
2026-04-26 05:03 -34.94886 150.13953 29863 ft 462 kts 234°
2026-04-26 05:03 -34.96759 150.10774 30187 ft 461 kts 234°
2026-04-26 05:04 -34.98627 150.07600 30487 ft 460 kts 234°
2026-04-26 05:04 -35.00497 150.04420 30728 ft 461 kts 234°
2026-04-26 05:04 -35.02365 150.01242 30979 ft 461 kts 234°
2026-04-26 05:04 -35.04237 149.98054 31184 ft 462 kts 234°
2026-04-26 05:05 -35.06112 149.94859 31346 ft 464 kts 234°
2026-04-26 05:05 -35.08002 149.91649 31497 ft 466 kts 234°
2026-04-26 05:05 -35.09902 149.88428 31648 ft 468 kts 234°
2026-04-26 05:05 -35.11811 149.85190 31804 ft 470 kts 234°
2026-04-26 05:06 -35.13725 149.81942 31954 ft 471 kts 234°
2026-04-26 05:06 -35.15642 149.78683 32113 ft 472 kts 234°
2026-04-26 05:06 -35.17561 149.75418 32254 ft 473 kts 234°
2026-04-26 05:06 -35.19477 149.72152 32417 ft 473 kts 234°
2026-04-26 05:07 -35.21394 149.68883 32586 ft 472 kts 234°
2026-04-26 05:07 -35.23282 149.65659 32756 ft 472 kts 234°
2026-04-26 05:07 -35.25189 149.62399 32941 ft 471 kts 234°
2026-04-26 05:07 -35.27095 149.59138 33140 ft 470 kts 234°
2026-04-26 05:08 -35.28993 149.55887 33330 ft 469 kts 234°
2026-04-26 05:08 -35.30893 149.52631 33501 ft 469 kts 234°
2026-04-26 05:08 -35.32789 149.49378 33654 ft 469 kts 234°
2026-04-26 05:08 -35.34688 149.46116 33771 ft 470 kts 234°
2026-04-26 05:09 -35.36587 149.42852 33925 ft 471 kts 234°
2026-04-26 05:09 -35.37847 149.40685 34044 ft 470 kts 234°
2026-04-26 05:09 -35.39743 149.37421 34215 ft 470 kts 234°
2026-04-26 05:09 -35.41649 149.34136 34387 ft 469 kts 234°
2026-04-26 05:10 -35.43556 149.30849 34559 ft 469 kts 234°
2026-04-26 05:10 -35.45445 149.27586 34737 ft 468 kts 234°
2026-04-26 05:10 -35.47332 149.24327 34906 ft 467 kts 234°
2026-04-26 05:10 -35.49185 149.21121 35072 ft 467 kts 234°
2026-04-26 05:11 -35.51061 149.17874 35246 ft 467 kts 235°
2026-04-26 05:11 -35.52939 149.14620 35418 ft 466 kts 235°
2026-04-26 05:11 -35.54806 149.11381 35591 ft 465 kts 235°
2026-04-26 05:11 -35.56677 149.08134 35762 ft 464 kts 235°
2026-04-26 05:12 -35.58538 149.04899 35933 ft 463 kts 235°
2026-04-26 05:12 -35.60402 149.01657 35993 ft 464 kts 235°
2026-04-26 05:12 -35.64147 148.95134 36011 ft 468 kts 235°
2026-04-26 05:13 -35.67909 148.88570 36007 ft 471 kts 235°
2026-04-26 05:13 -35.71693 148.81955 36012 ft 473 kts 235°
2026-04-26 05:14 -35.75486 148.75310 36002 ft 475 kts 235°
2026-04-26 05:14 -35.79256 148.68692 36005 ft 475 kts 235°
2026-04-26 05:15 -35.83019 148.62076 35991 ft 468 kts 235°
2026-04-26 05:15 -35.86734 148.55531 35994 ft 465 kts 235°
2026-04-26 05:16 -35.90427 148.49004 36004 ft 463 kts 235°
2026-04-26 05:16 -35.94101 148.42481 36003 ft 463 kts 235°
2026-04-26 05:17 -35.97772 148.35949 36009 ft 463 kts 235°
2026-04-26 05:17 -36.01444 148.29403 36010 ft 464 kts 235°
2026-04-26 05:18 -36.05125 148.22832 36004 ft 465 kts 235°
2026-04-26 05:18 -36.08785 148.16284 36011 ft 466 kts 236°
2026-04-26 05:19 -36.12464 148.09693 36000 ft 465 kts 235°
2026-04-26 05:19 -36.16142 148.03116 35999 ft 464 kts 235°
2026-04-26 05:20 -36.19808 147.96555 35991 ft 463 kts 235°
2026-04-26 05:20 -36.23463 147.89997 35997 ft 462 kts 236°
2026-04-26 05:21 -36.27110 147.83437 36003 ft 461 kts 236°
2026-04-26 05:21 -36.30748 147.76882 35996 ft 461 kts 236°
2026-04-26 05:22 -36.34387 147.70314 36003 ft 462 kts 236°
2026-04-26 05:22 -36.37996 147.63772 36003 ft 463 kts 236°
2026-04-26 05:23 -36.41634 147.57163 36011 ft 463 kts 236°
2026-04-26 05:23 -36.45272 147.50542 36001 ft 464 kts 236°
2026-04-26 05:24 -36.48852 147.44013 36004 ft 463 kts 236°
2026-04-26 05:24 -36.52439 147.37460 36000 ft 454 kts 236°
2026-04-26 05:25 -36.55968 147.31001 35963 ft 451 kts 236°
2026-04-26 05:25 -36.57740 147.27753 35591 ft 453 kts 236°
2026-04-26 05:25 -36.59497 147.24530 35213 ft 448 kts 236°
2026-04-26 05:26 -36.61240 147.21329 34790 ft 444 kts 236°
2026-04-26 05:26 -36.62965 147.18157 34371 ft 441 kts 236°
2026-04-26 05:26 -36.64655 147.15048 33961 ft 437 kts 236°
2026-04-26 05:26 -36.66349 147.11927 33634 ft 431 kts 236°
2026-04-26 05:27 -36.68025 147.08838 33395 ft 433 kts 236°
2026-04-26 05:27 -36.69732 147.05690 33174 ft 443 kts 236°
2026-04-26 05:27 -36.71478 147.02465 32946 ft 454 kts 236°
2026-04-26 05:27 -36.73265 146.99163 32710 ft 463 kts 236°
2026-04-26 05:28 -36.75084 146.95798 32484 ft 471 kts 236°
2026-04-26 05:28 -36.76930 146.92379 32227 ft 476 kts 236°
2026-04-26 05:28 -36.78758 146.88991 32085 ft 463 kts 236°
2026-04-26 05:28 -36.80518 146.85724 31943 ft 446 kts 236°
2026-04-26 05:29 -36.82208 146.82586 31659 ft 438 kts 236°
2026-04-26 05:29 -36.83922 146.79398 30770 ft 446 kts 236°
2026-04-26 05:29 -36.85653 146.76176 30203 ft 445 kts 236°
2026-04-26 05:29 -36.87389 146.72942 29827 ft 439 kts 236°
2026-04-26 05:30 -36.89084 146.69782 29251 ft 438 kts 236°
2026-04-26 05:30 -36.90758 146.66657 28746 ft 436 kts 236°
2026-04-26 05:30 -36.92439 146.63515 28241 ft 433 kts 236°
2026-04-26 05:30 -36.94105 146.60400 27750 ft 430 kts 236°
2026-04-26 05:31 -36.95762 146.57299 27264 ft 427 kts 236°
2026-04-26 05:31 -36.97404 146.54222 26776 ft 424 kts 236°
2026-04-26 05:31 -36.99037 146.51160 26293 ft 421 kts 236°
2026-04-26 05:31 -37.00653 146.48126 25815 ft 418 kts 236°
2026-04-26 05:32 -37.02262 146.45104 25339 ft 415 kts 236°
2026-04-26 05:32 -37.03855 146.42108 24866 ft 412 kts 236°
2026-04-26 05:32 -37.05441 146.39124 24399 ft 409 kts 236°
2026-04-26 05:32 -37.07012 146.36164 23933 ft 407 kts 236°
2026-04-26 05:33 -37.08573 146.33222 23468 ft 404 kts 236°
2026-04-26 05:33 -37.10124 146.30297 23003 ft 401 kts 237°
2026-04-26 05:33 -37.11661 146.27394 22543 ft 398 kts 237°
2026-04-26 05:33 -37.13190 146.24505 22084 ft 396 kts 237°
2026-04-26 05:34 -37.14701 146.21647 21690 ft 391 kts 237°
2026-04-26 05:34 -37.16195 146.18818 21277 ft 388 kts 237°
2026-04-26 05:34 -37.17678 146.16007 20831 ft 385 kts 237°
2026-04-26 05:34 -37.19152 146.13211 20377 ft 383 kts 237°
2026-04-26 05:35 -37.20616 146.10433 19936 ft 380 kts 237°
2026-04-26 05:35 -37.22071 146.07668 19485 ft 378 kts 237°
2026-04-26 05:35 -37.23500 146.04951 19035 ft 376 kts 237°
2026-04-26 05:35 -37.24937 146.02216 18596 ft 374 kts 237°
2026-04-26 05:36 -37.26367 145.99492 18128 ft 373 kts 237°
2026-04-26 05:36 -37.27793 145.96775 17685 ft 371 kts 237°
2026-04-26 05:36 -37.29211 145.94071 17233 ft 369 kts 237°
2026-04-26 05:36 -37.30615 145.91391 16801 ft 366 kts 237°
2026-04-26 05:37 -37.32015 145.88723 16380 ft 364 kts 237°
2026-04-26 05:37 -37.33406 145.86075 15942 ft 362 kts 237°
2026-04-26 05:37 -37.34792 145.83436 15510 ft 360 kts 237°
2026-04-26 05:37 -37.36170 145.80809 15081 ft 358 kts 237°
2026-04-26 05:38 -37.37542 145.78193 14657 ft 357 kts 237°
2026-04-26 05:38 -37.38887 145.75624 14240 ft 354 kts 237°
2026-04-26 05:38 -37.40236 145.73044 13824 ft 352 kts 237°
2026-04-26 05:38 -37.41578 145.70477 13407 ft 350 kts 237°
2026-04-26 05:39 -37.42912 145.67923 13055 ft 348 kts 237°
2026-04-26 05:39 -37.44229 145.65401 13011 ft 342 kts 237°
2026-04-26 05:39 -37.45532 145.62923 12769 ft 339 kts 236°
2026-04-26 05:39 -37.46919 145.60491 12225 ft 344 kts 233°
2026-04-26 05:40 -37.48352 145.58068 11692 ft 342 kts 233°
2026-04-26 05:40 -37.49770 145.55673 11085 ft 341 kts 233°
2026-04-26 05:40 -37.51175 145.53284 10728 ft 333 kts 234°
2026-04-26 05:40 -37.52521 145.50978 10504 ft 321 kts 234°
2026-04-26 05:41 -37.53815 145.48753 10356 ft 309 kts 234°
2026-04-26 05:41 -37.55072 145.46585 10132 ft 304 kts 234°
2026-04-26 05:41 -37.56308 145.44453 9968 ft 297 kts 234°
2026-04-26 05:41 -37.57513 145.42373 9804 ft 291 kts 234°
2026-04-26 05:42 -37.58695 145.40330 9488 ft 287 kts 234°
2026-04-26 05:42 -37.59864 145.38310 9201 ft 282 kts 234°
2026-04-26 05:42 -37.61010 145.36328 8909 ft 278 kts 234°
2026-04-26 05:42 -37.62123 145.34400 8623 ft 273 kts 234°
2026-04-26 05:43 -37.63237 145.32471 8348 ft 269 kts 234°
2026-04-26 05:43 -37.64331 145.30575 8065 ft 266 kts 234°
2026-04-26 05:43 -37.65411 145.28703 7782 ft 261 kts 234°
2026-04-26 05:43 -37.66478 145.26852 7523 ft 260 kts 234°
2026-04-26 05:44 -37.67550 145.24993 7259 ft 264 kts 234°
2026-04-26 05:44 -37.68641 145.23096 6993 ft 270 kts 234°
2026-04-26 05:44 -37.69758 145.21156 6703 ft 275 kts 234°
2026-04-26 05:44 -37.70881 145.19204 6405 ft 272 kts 234°
2026-04-26 05:45 -37.71970 145.17310 6113 ft 268 kts 234°
2026-04-26 05:45 -37.73074 145.15390 5885 ft 261 kts 234°
2026-04-26 05:45 -37.74117 145.13575 5771 ft 250 kts 234°
2026-04-26 05:45 -37.75117 145.11832 5652 ft 240 kts 234°
2026-04-26 05:46 -37.76078 145.10158 5555 ft 232 kts 234°
2026-04-26 05:46 -37.77033 145.08492 5351 ft 238 kts 234°
2026-04-26 05:46 -37.78019 145.06771 5125 ft 245 kts 234°
2026-04-26 05:46 -37.79020 145.05020 4869 ft 245 kts 234°
2026-04-26 05:47 -37.80000 145.03309 4614 ft 242 kts 234°
2026-04-26 05:47 -37.80978 145.01595 4352 ft 239 kts 236°
2026-04-26 05:47 -37.81631 144.99700 4153 ft 232 kts 258°
2026-04-26 05:47 -37.81946 144.97735 3981 ft 229 kts 258°
2026-04-26 05:48 -37.82276 144.95780 3755 ft 226 kts 258°
2026-04-26 05:48 -37.82592 144.93841 3522 ft 225 kts 260°
2026-04-26 05:48 -37.82842 144.91877 3263 ft 226 kts 261°
2026-04-26 05:48 -37.83058 144.89919 3022 ft 221 kts 268°
2026-04-26 05:49 -37.82720 144.88089 2744 ft 213 kts 302°
2026-04-26 05:49 -37.80347 144.86292 2403 ft 198 kts 349°
2026-04-26 05:49 -37.79026 144.86025 2329 ft 186 kts 351°
2026-04-26 05:50 -37.77782 144.85799 2274 ft 179 kts 351°
2026-04-26 05:50 -37.76964 144.85650 2195 ft 179 kts 351°
2026-04-26 05:50 -37.75728 144.85423 1999 ft 180 kts 351°
2026-04-26 05:50 -37.74102 144.85125 1723 ft 176 kts 351°
2026-04-26 05:51 -37.73323 144.84982 1538 ft 173 kts 351°